Chicopee, MA

4:46 PM EDT on July 26, 2016 (GMT -0400)
Westover Air Reserve Base / Metropolitan Airport

Weather History for KCEF - February, 2013

Change the Weather History Date:

Saturday, February 16, 2013

  Actual Average Record
Temperature  
Mean Temperature 33 °F -  
Max Temperature 37 °F 35 °F 59 °F (2006)
Min Temperature 27 °F 18 °F -9 °F (2015)
Degree Days  
Heating Degree Days 32    
Moisture  
Dew Point 28 °F    
Average Humidity 87    
Maximum Humidity 100    
Minimum Humidity 44    
Precipitation  
Precipitation 0.03 in - - ()
Sea Level Pressure  
Sea Level Pressure 29.94 in    
Wind  
Wind Speed 8 mph (NNW)    
Max Wind Speed 22 mph    
Max Gust Speed 26 mph    
Visibility 8 miles    
Events Rain , Snow    
Averages and records for this station are not official NWS values.
T = Trace of Precipitation, MM = Missing Value Source: NWS Daily Summary

Daily Weather History Graph

Daily Weather History Graph

Search for Another Location

Airport or City:

Trip Planner

Search our weather history database for the weather conditions in past years. The results will help you decide how hot, cold, wet, or windy it might be!

Date:

Astronomy

Feb. 16, 2013 Rise Set
Actual Time 6:44 AM EST 5:24 PM EST
Civil Twilight 6:15 AM EST 5:53 PM EST
Nautical Twilight 5:43 AM EST 6:25 PM EST
Astronomical Twilight 5:10 AM EST 6:58 PM EST
Moon 9:47 AM EST (2/16) No Moon Set
Length of Visible Light 11h 37m
Length of Day
10h 39m
Waxing Crescent, 39% of the Moon is Illuminated
Feb 16
Waxing Crescent
Feb 17
First Quarter
Feb 25
Full
Mar 4
Last Quarter
Mar 11
New

Hourly Weather History & Observations

Time (EST) Temp. Windchill Dew Point Humidity Pressure Visibility Wind Dir Wind Speed Gust Speed Precip Events Conditions
12:55 AM 37.2 °F 29.1 °F 25.5 °F 63% 29.94 in 10.0 mi NNW 12.7 mph - N/A   Scattered Clouds
1:05 AM 37.4 °F 29.3 °F 26.6 °F 65% 29.95 in 10.0 mi NW 12.7 mph - N/A   Partly Cloudy
1:33 AM 35.6 °F 26.2 °F 28.4 °F 75% 29.95 in 10.0 mi North 15.0 mph - N/A   Mostly Cloudy
1:35 AM 35.6 °F 27.5 °F 28.4 °F 75% 29.95 in 10.0 mi NNW 11.5 mph - N/A Rain Light Rain
1:45 AM 35.6 °F 27.5 °F 30.2 °F 81% 29.96 in 10.0 mi NNW 11.5 mph - N/A Rain Light Rain
1:50 AM 33.8 °F 25.8 °F 30.2 °F 87% 29.96 in 10.0 mi North 10.4 mph - N/A Rain Light Rain
1:55 AM 34.3 °F 26.5 °F 30.0 °F 84% 29.97 in 10.0 mi NNW 10.4 mph - 0.00 in Rain Light Rain
2:01 AM 33.8 °F 27.0 °F 30.2 °F 87% 29.97 in 10.0 mi NNW 8.1 mph - N/A Rain Light Rain
2:16 AM 33.8 °F 25.8 °F 32.0 °F 93% 29.97 in 4.0 mi NNW 10.4 mph - N/A Snow Light Snow
2:23 AM 33.8 °F 26.4 °F 32.0 °F 93% 29.97 in 5.0 mi NNW 9.2 mph - N/A Snow Light Snow
2:24 AM 33.8 °F 26.4 °F 32.0 °F 93% 29.97 in 5.0 mi NNW 9.2 mph - N/A Snow Light Snow
2:30 AM 32.0 °F 24.8 °F 32.0 °F 100% 29.98 in 5.0 mi NNW 8.1 mph - N/A Snow Light Snow
2:34 AM 32.0 °F 24.2 °F 32.0 °F 100% 29.97 in 5.0 mi North 9.2 mph - N/A Snow Light Snow
2:53 AM 32.0 °F 23.0 °F 32.0 °F 100% 29.96 in 4.0 mi North 11.5 mph - N/A Snow Light Snow
2:55 AM 32.4 °F 23.5 °F 31.8 °F 98% 29.97 in 4.0 mi North 11.5 mph - 0.01 in Rain Light Rain
3:00 AM 32.0 °F 24.8 °F 32.0 °F 100% 29.97 in 5.0 mi NNW 8.1 mph - N/A Rain Light Rain
3:14 AM 32.0 °F 24.2 °F 32.0 °F 100% 29.97 in 7.0 mi North 9.2 mph - N/A Rain Light Rain
3:34 AM 32.0 °F 25.6 °F 32.0 °F 100% 29.96 in 6.0 mi North 6.9 mph - N/A Snow Light Snow
3:38 AM 32.0 °F 25.6 °F 32.0 °F 100% 29.96 in 6.0 mi North 6.9 mph - N/A Snow Light Snow
3:48 AM 32.0 °F 26.4 °F 32.0 °F 100% 29.96 in 8.0 mi North 5.8 mph - N/A Snow Light Snow
3:53 AM 32.0 °F 26.4 °F 32.0 °F 100% 29.96 in 9.0 mi NNW 5.8 mph - N/A Snow Light Snow
3:55 AM 31.6 °F 26.0 °F 31.1 °F 98% 29.96 in 9.0 mi North 5.8 mph - 0.01 in Snow Light Snow
3:59 AM 32.0 °F 26.4 °F 30.2 °F 93% 29.95 in 10.0 mi North 5.8 mph - N/A Snow Light Snow
4:05 AM 32.0 °F 26.4 °F 30.2 °F 93% 29.96 in 10.0 mi North 5.8 mph - N/A Snow Light Snow
4:13 AM 32.0 °F 27.5 °F 30.2 °F 93% 29.96 in 10.0 mi North 4.6 mph - N/A Snow Light Snow
4:38 AM 32.0 °F 27.5 °F 30.2 °F 93% 29.96 in 7.0 mi North 4.6 mph - N/A Snow Light Snow
4:46 AM 32.0 °F 28.7 °F 30.2 °F 93% 29.96 in 7.0 mi NNW 3.5 mph - N/A Snow Light Snow
4:50 AM 32.0 °F 28.7 °F 30.2 °F 93% 29.96 in 6.0 mi NNW 3.5 mph - N/A Snow Light Snow
4:55 AM 31.5 °F 28.1 °F 30.9 °F 98% 29.95 in 5.0 mi North 3.5 mph - 0.01 in Snow Light Snow
4:56 AM 32.0 °F 28.7 °F 30.2 °F 93% 29.95 in 5.0 mi North 3.5 mph - N/A Snow Light Snow
4:59 AM 32.0 °F - 30.2 °F 93% 29.96 in 5.0 mi Calm Calm - N/A Snow Light Snow
5:04 AM 32.0 °F 28.7 °F 30.2 °F 93% 29.95 in 5.0 mi NNW 3.5 mph - N/A Snow Light Snow
5:08 AM 32.0 °F - 30.2 °F 93% 29.95 in 5.0 mi Calm Calm - N/A Snow Light Snow
5:16 AM 32.0 °F 28.7 °F 30.2 °F 93% 29.95 in 7.0 mi NW 3.5 mph - N/A Snow Light Snow
5:24 AM 32.0 °F 28.7 °F 30.2 °F 93% 29.95 in 8.0 mi NW 3.5 mph - N/A Snow Light Snow
5:28 AM 32.0 °F 27.5 °F 30.2 °F 93% 29.95 in 9.0 mi NNW 4.6 mph - N/A Snow Light Snow
5:36 AM 32.0 °F 27.5 °F 30.2 °F 93% 29.95 in 10.0 mi North 4.6 mph - N/A Snow Light Snow
5:43 AM 32.0 °F 25.6 °F 30.2 °F 93% 29.95 in 10.0 mi North 6.9 mph - N/A Snow Light Snow
5:55 AM 31.1 °F 24.5 °F 30.6 °F 98% 29.94 in 7.0 mi North 6.9 mph - 0.00 in Snow Light Snow
5:56 AM 32.0 °F 25.6 °F 30.2 °F 93% 29.94 in 8.0 mi North 6.9 mph - N/A Snow Light Snow
6:07 AM 30.2 °F 24.3 °F 30.2 °F 100% 29.94 in 10.0 mi North 5.8 mph - N/A Snow Light Snow
6:12 AM 30.2 °F 24.3 °F 30.2 °F 100% 29.95 in 10.0 mi NNW 5.8 mph - N/A   Scattered Clouds
6:21 AM 30.2 °F 26.7 °F 30.2 °F 100% 29.94 in 10.0 mi NNW 3.5 mph - N/A   Mostly Cloudy
6:54 AM 30.2 °F 25.4 °F 30.2 °F 100% 29.96 in 10.0 mi NNW 4.6 mph - N/A   Overcast
6:55 AM 30.2 °F 25.4 °F 29.7 °F 98% 29.96 in 10.0 mi NW 4.6 mph - 0.00 in   Overcast
7:03 AM 30.2 °F 26.7 °F 30.2 °F 100% 29.95 in 10.0 mi North 3.5 mph - N/A   Overcast
7:05 AM 30.2 °F 26.7 °F 30.2 °F 100% 29.95 in 10.0 mi NNW 3.5 mph - N/A   Overcast
7:10 AM 30.2 °F 25.4 °F 30.2 °F 100% 29.96 in 10.0 mi NNW 4.6 mph - N/A   Mostly Cloudy
7:11 AM 30.2 °F 25.4 °F 30.2 °F 100% 29.96 in 10.0 mi NNW 4.6 mph - N/A   Mostly Cloudy
7:23 AM 30.2 °F 25.4 °F 30.2 °F 100% 29.97 in 10.0 mi NW 4.6 mph - N/A   Mostly Cloudy
7:38 AM 30.2 °F 26.7 °F 30.2 °F 100% 29.97 in 10.0 mi NW 3.5 mph - N/A   Mostly Cloudy
7:46 AM 30.2 °F - 30.2 °F 100% 29.96 in 8.0 mi Calm Calm - N/A   Overcast
7:55 AM 30.9 °F - 30.2 °F 97% 29.97 in 6.0 mi Calm Calm - 0.00 in   Overcast
8:06 AM 30.2 °F 26.7 °F 30.2 °F 100% 29.97 in 10.0 mi NNW 3.5 mph - N/A   Overcast
8:08 AM 30.2 °F 25.4 °F 30.2 °F 100% 29.97 in 10.0 mi NNW 4.6 mph - N/A   Overcast
8:37 AM 30.2 °F 25.4 °F 30.2 °F 100% 29.96 in 10.0 mi North 4.6 mph - N/A   Mostly Cloudy
8:39 AM 30.2 °F 25.4 °F 30.2 °F 100% 29.96 in 10.0 mi North 4.6 mph - N/A   Scattered Clouds
8:55 AM 31.5 °F 26.8 °F 30.2 °F 95% 29.95 in 10.0 mi North 4.6 mph - 0.00 in   Partly Cloudy
9:55 AM 32.5 °F 26.2 °F 28.0 °F 83% 29.94 in 10.0 mi North 6.9 mph - N/A   Overcast
10:55 AM 33.6 °F 27.5 °F 24.6 °F 70% 29.94 in 10.0 mi North 6.9 mph - N/A   Overcast
11:55 AM 34.5 °F 27.9 °F 21.2 °F 58% 29.91 in 10.0 mi NNE 8.1 mph - N/A   Overcast
12:55 PM 34.9 °F 27.1 °F 20.1 °F 55% 29.89 in 10.0 mi NE 10.4 mph - N/A   Overcast
1:55 PM 36.0 °F 31.1 °F 20.3 °F 53% 29.87 in 10.0 mi North 5.8 mph - N/A   Overcast
2:55 PM 36.5 °F 30.3 °F 16.7 °F 45% 29.87 in 10.0 mi NNE 8.1 mph - N/A   Overcast
3:55 PM 36.5 °F 29.2 °F 16.5 °F 44% 29.84 in 10.0 mi North 10.4 mph - N/A   Overcast
4:55 PM 35.2 °F 28.8 °F 17.4 °F 48% 29.84 in 10.0 mi NNW 8.1 mph - N/A   Overcast
5:55 PM 34.2 °F 25.7 °F 17.2 °F 50% 29.85 in 10.0 mi NNW 11.5 mph - N/A   Mostly Cloudy
7:55 PM 32.5 °F 23.2 °F 17.4 °F 54% 29.83 in 10.0 mi North 12.7 mph - N/A   Overcast
8:55 PM 31.3 °F 20.3 °F 18.0 °F 58% 29.83 in 10.0 mi NNE 16.1 mph - N/A   Overcast
9:55 PM 30.2 °F 17.1 °F 16.7 °F 57% 29.80 in 10.0 mi NNE 21.9 mph 26.5 mph N/A   Mostly Cloudy
10:55 PM 29.5 °F 18.4 °F 13.3 °F 51% 29.78 in 10.0 mi North 15.0 mph - N/A   Overcast
11:55 PM 27.5 °F 13.9 °F 9.7 °F 47% 29.73 in 10.0 mi NNE 20.7 mph - N/A   Overcast